QPF
0.02 0.03 0.04 0.04 0.05 0.06 0.06 0.08 0.11 0.13 0.15 0.14 0.13 0.12 0.12 0.14 0.16 0.18 0.18 0.17 0.17 0.18 0.16 0.15 0.14 0.12 0.12 0.13 0.13 0.12 0.12 0.12 0.12 0.11 0.10 0.07 0.05 0.04 0.03 0.03 0.03 0.03 0.03
0.02 0.03 0.03 0.03 0.03 0.04 0.05 0.06 0.07 0.08 0.12 0.14 0.16 0.16 0.19 0.19 0.20 0.19 0.20 0.17 0.17 0.18 0.18 0.16 0.14 0.14 0.13 0.12 0.12 0.11 0.12 0.12 0.14 0.16 0.16 0.14 0.10 0.06 0.03 0.03 0.03 0.03 0.03
0.02 0.02 0.02 0.02 0.03 0.04 0.05 0.06 0.07 0.09 0.13 0.16 0.18 0.21 0.25 0.25 0.23 0.21 0.20 0.18 0.16 0.16 0.16 0.16 0.16 0.15 0.14 0.13 0.14 0.14 0.14 0.15 0.15 0.15 0.15 0.15 0.12 0.08 0.05 0.04 0.03 0.03 0.02
0.03 0.03 0.03 0.03 0.04 0.05 0.06 0.06 0.06 0.09 0.13 0.18 0.19 0.20 0.22 0.24 0.24 0.24 0.22 0.20 0.19 0.17 0.16 0.14 0.14 0.12 0.12 0.12 0.13 0.13 0.13 0.12 0.10 0.08 0.08 0.09 0.09 0.09 0.08 0.06 0.04 0.03 0.02
0.03 0.04 0.04 0.04 0.04 0.05 0.06 0.07 0.06 0.08 0.12 0.16 0.20 0.22 0.24 0.25 0.27 0.28 0.26 0.22 0.19 0.17 0.15 0.14 0.12 0.11 0.10 0.10 0.10 0.12 0.11 0.09 0.08 0.07 0.06 0.06 0.07 0.08 0.09 0.08 0.06 0.04 0.04
0.03 0.04 0.03 0.03 0.04 0.04 0.05 0.06 0.07 0.09 0.13 0.17 0.21 0.25 0.27 0.26 0.26 0.24 0.23 0.20 0.17 0.15 0.13 0.12 0.10 0.10 0.08 0.07 0.08 0.08 0.08 0.07 0.05 0.04 0.04 0.04 0.04 0.06 0.08 0.08 0.07 0.06 0.05
0.04 0.05 0.03 0.03 0.03 0.03 0.04 0.05 0.07 0.10 0.14 0.15 0.17 0.22 0.22 0.20 0.19 0.19 0.21 0.21 0.18 0.15 0.14 0.13 0.12 0.10 0.08 0.08 0.07 0.07 0.07 0.06 0.05 0.03 0.02 0.02 0.02 0.03 0.04 0.06 0.07 0.06 0.05
0.05 0.03 0.02 0.02 0.02 0.02 0.03 0.04 0.07 0.10 0.11 0.12 0.12 0.13 0.14 0.13 0.13 0.13 0.12 0.11 0.11 0.10 0.10 0.10 0.09 0.08 0.08 0.08 0.08 0.07 0.07 0.06 0.05 0.04 0.03 0.02 0.02 0.02 0.02 0.03 0.04 0.05 0.04
0.06 0.04 0.03 0.02 0.02 0.02 0.04 0.07 0.07 0.10 0.10 0.09 0.11 0.11 0.12 0.10 0.09 0.08 0.07 0.05 0.05 0.05 0.05 0.05 0.05 0.05 0.04 0.04 0.04 0.05 0.05 0.04 0.04 0.03 0.03 0.03 0.02 0.02 0.02 0.02 0.02 0.03 0.03
0.04 0.03 0.03 0.02 0.03 0.03 0.05 0.07 0.06 0.07 0.09 0.09 0.10 0.10 0.12 0.12 0.10 0.08 0.07 0.06 0.05 0.04 0.04 0.03 0.03 0.02 0.02 0.02 0.02 0.02 0.02 0.03 0.02 0.02 0.01 0.01 0.02 0.02 0.02 0.02 0.01 0.02 0.02
0.04 0.03 0.03 0.02 0.03 0.03 0.03 0.05 0.07 0.09 0.10 0.11 0.11 0.08 0.08 0.10 0.11 0.09 0.08 0.07 0.07 0.05 0.03 0.02 0.02 0.02 0.01 0.01 0.01 0.01 0.01 0.02 0.02 0.02 0.02 0.02 0.02 0.02 0.02 0.02 0.02 0.02 0.02
0.05 0.04 0.04 0.04 0.04 0.04 0.04 0.05 0.07 0.10 0.11 0.11 0.13 0.11 0.08 0.07 0.09 0.09 0.09 0.07 0.07 0.06 0.04 0.03 0.02 0.02 0.01 0.01 0.01 0.01 0.01 0.01 0.01 0.01 0.02 0.02 0.02 0.01 0.01 0.01 0.01 0.02 0.02
0.04 0.05 0.06 0.06 0.08 0.08 0.08 0.07 0.09 0.11 0.13 0.11 0.12 0.12 0.10 0.07 0.07 0.08 0.07 0.06 0.05 0.04 0.04 0.03 0.03 0.03 0.03 0.02 0.02 0.01 0.01 0.01 0.01 0.01 0.01 0.01 0.01 0.01 0.01 0.01 0.01 0.01 0.02
0.04 0.05 0.05 0.05 0.07 0.12 0.13 0.11 0.11 0.12 0.13 0.14 0.15 0.13 0.11 0.09 0.08 0.06 0.04 0.03 0.03 0.03 0.02 0.02 0.01 0.01 0.02 0.02 0.02 0.02 0.01 0.01 0.01 0.01 0.01 0.01 0.01 0.01 0.01 0.01 0.01 0.01 0.02
0.06 0.06 0.07 0.07 0.07 0.10 0.12 0.12 0.12 0.12 0.11 0.12 0.12 0.12 0.11 0.10 0.08 0.05 0.03 0.03 0.02 0.01 0.01 0.01 0.01 0.01 0.00 0.00 0.00 0.00 0.01 0.01 0.01 0.01 0.01 0.01 0.01 0.01 0.01 0.01 0.01 0.01 0.01
0.06 0.07 0.08 0.09 0.09 0.10 0.09 0.10 0.09 0.09 0.10 0.09 0.09 0.09 0.08 0.06 0.05 0.04 0.03 0.02 0.02 0.01 0.01 0.01 0.01 0.01 0.00 0.00 0.00 0.00 0.00 0.00 0.01 0.01 0.01 0.01 0.01 0.01 0.01 0.01 0.01 0.01 0.01
0.07 0.08 0.09 0.09 0.08 0.09 0.09 0.08 0.08 0.07 0.07 0.07 0.06 0.05 0.04 0.03 0.03 0.02 0.02 0.01 0.01 0.01 0.01 0.01 0.01 0.01 0.00 0.00 0.00 0.00 0.00 0.00 0.01 0.01 0.01 0.01 0.00 0.00 0.01 0.01 0.00 0.00 0.00
0.08 0.09 0.11 0.10 0.09 0.09 0.09 0.09 0.07 0.06 0.05 0.04 0.04 0.03 0.02 0.02 0.02 0.01 0.01 0.01 0.01 0.01 0.01 0.01 0.01 0.01 0.01 0.00 0.00 0.00 0.01 0.01 0.01 0.01 0.01 0.01 0.01 0.01 0.00 0.00 0.00 0.00 0.00
0.08 0.10 0.11 0.09 0.09 0.09 0.08 0.08 0.07 0.05 0.04 0.03 0.02 0.02 0.01 0.01 0.01 0.01 0.01 0.01 0.01 0.01 0.01 0.01 0.01 0.01 0.01 0.00 0.00 0.00 0.01 0.01 0.01 0.01 0.01 0.01 0.01 0.00 0.00 0.01 0.01 0.01 0.01
0.06 0.10 0.11 0.10 0.09 0.08 0.07 0.06 0.06 0.05 0.03 0.02 0.01 0.01 0.01 0.01 0.01 0.01 0.01 0.01 0.01 0.01 0.01 0.01 0.01 0.01 0.01 0.00 0.00 0.00 0.01 0.01 0.01 0.01 0.01 0.00 0.00 0.00 0.00 0.01 0.02 0.02 0.02
0.05 0.08 0.10 0.10 0.10 0.10 0.07 0.05 0.04 0.03 0.02 0.01 0.01 0.02 0.01 0.01 0.01 0.01 0.01 0.01 0.01 0.01 0.01 0.01 0.01 0.01 0.00 0.00 0.00 0.00 0.00 0.01 0.01 0.01 0.02 0.01 0.00 0.00 0.00 0.00 0.02 0.01 0.01
0.04 0.06 0.07 0.07 0.07 0.07 0.06 0.06 0.05 0.03 0.02 0.02 0.02 0.02 0.01 0.00 0.00 0.01 0.01 0.01 0.01 0.01 0.01 0.01 0.02 0.01 0.01 0.00 0.00 0.00 0.00 0.00 0.01 0.01 0.01 0.01 0.00 0.00 0.00 0.00 0.01 0.00 0.00
0.04 0.05 0.04 0.04 0.05 0.04 0.04 0.05 0.05 0.04 0.02 0.02 0.02 0.01 0.01 0.00 0.01 0.01 0.01 0.01 0.01 0.01 0.01 0.01 0.01 0.01 0.01 0.01 0.00 0.00 0.00 0.00 0.01 0.01 0.00 0.01 0.01 0.01 0.02 0.00 0.00 0.01 0.02
0.04 0.04 0.02 0.02 0.03 0.03 0.03 0.03 0.03 0.03 0.02 0.02 0.02 0.01 0.01 0.01 0.01 0.01 0.00 0.01 0.01 0.01 0.01 0.01 0.01 0.02 0.02 0.01 0.01 0.01 0.01 0.01 0.01 0.02 0.01 0.01 0.01 0.02 0.02 0.02 0.02 0.02 0.02
0.02 0.02 0.02 0.02 0.03 0.02 0.02 0.02 0.02 0.03 0.03 0.02 0.01 0.01 0.01 0.01 0.01 0.01 0.00 0.00 0.00 0.00 0.00 0.01 0.01 0.01 0.01 0.00 0.00 0.00 0.00 0.01 0.00 0.01 0.02 0.03 0.04 0.04 0.04 0.03 0.03 0.03 0.02
0.02 0.02 0.02 0.02 0.02 0.01 0.01 0.02 0.02 0.02 0.03 0.02 0.01 0.01 0.00 0.00 0.00 0.01 0.00 0.00 0.00 0.00 0.00 0.00 0.00 0.00 0.00 0.00 0.00 0.00 0.00 0.00 0.00 0.01 0.03 0.02 0.01 0.02 0.03 0.02 0.01 0.01 0.01
MSLP
1013.69 1013.78 1013.78 1013.71 1013.59 1013.46 1013.36 1013.31 1013.35 1013.47 1013.68 1013.96 1014.31 1014.68 1015.08 1015.48 1015.87 1016.24 1016.58 1016.90 1017.18 1017.43 1017.65 1017.85 1018.03 1018.22 1018.42 1018.65 1018.92 1019.24 1019.59 1019.98 1020.37 1020.77 1021.13 1021.46 1021.74 1021.95 1022.11 1022.21 1022.27 1022.28 1022.26
1014.62 1014.72 1014.71 1014.60 1014.42 1014.20 1014.00 1013.85 1013.79 1013.83 1013.98 1014.22 1014.54 1014.92 1015.33 1015.76 1016.19 1016.59 1016.97 1017.31 1017.61 1017.86 1018.07 1018.25 1018.40 1018.54 1018.70 1018.89 1019.11 1019.38 1019.71 1020.06 1020.44 1020.82 1021.18 1021.51 1021.80 1022.04 1022.24 1022.39 1022.51 1022.59 1022.65
1015.29 1015.44 1015.44 1015.32 1015.09 1014.81 1014.52 1014.28 1014.13 1014.08 1014.16 1014.35 1014.65 1015.03 1015.47 1015.94 1016.42 1016.89 1017.33 1017.72 1018.07 1018.35 1018.57 1018.74 1018.87 1018.97 1019.08 1019.20 1019.36 1019.57 1019.82 1020.12 1020.44 1020.77 1021.10 1021.41 1021.70 1021.95 1022.18 1022.38 1022.57 1022.73 1022.87
1015.71 1015.92 1015.96 1015.84 1015.59 1015.26 1014.90 1014.58 1014.34 1014.22 1014.23 1014.38 1014.66 1015.05 1015.52 1016.04 1016.60 1017.15 1017.67 1018.15 1018.56 1018.89 1019.15 1019.33 1019.45 1019.52 1019.58 1019.64 1019.73 1019.86 1020.03 1020.24 1020.48 1020.74 1021.01 1021.28 1021.54 1021.79 1022.04 1022.28 1022.51 1022.74 1022.95
1015.92 1016.20 1016.30 1016.20 1015.95 1015.59 1015.19 1014.80 1014.49 1014.30 1014.25 1014.37 1014.63 1015.03 1015.55 1016.13 1016.77 1017.41 1018.03 1018.60 1019.09 1019.49 1019.80 1020.00 1020.13 1020.19 1020.21 1020.22 1020.24 1020.28 1020.37 1020.49 1020.65 1020.83 1021.03 1021.24 1021.46 1021.68 1021.91 1022.16 1022.42 1022.68 1022.94
1016.02 1016.38 1016.53 1016.48 1016.24 1015.87 1015.44 1015.01 1014.65 1014.41 1014.33 1014.42 1014.68 1015.10 1015.64 1016.29 1017.00 1017.73 1018.44 1019.09 1019.66 1020.13 1020.49 1020.73 1020.86 1020.92 1020.92 1020.89 1020.86 1020.85 1020.86 1020.91 1020.99 1021.10 1021.22 1021.36 1021.52 1021.70 1021.90 1022.12 1022.37 1022.63 1022.91
1016.13 1016.55 1016.76 1016.75 1016.55 1016.20 1015.76 1015.32 1014.94 1014.67 1014.57 1014.64 1014.90 1015.33 1015.91 1016.60 1017.36 1018.15 1018.92 1019.64 1020.27 1020.79 1021.19 1021.46 1021.61 1021.67 1021.66 1021.62 1021.56 1021.51 1021.48 1021.47 1021.49 1021.54 1021.60 1021.68 1021.77 1021.89 1022.03 1022.21 1022.42 1022.65 1022.90
1016.33 1016.81 1017.07 1017.11 1016.95 1016.63 1016.22 1015.80 1015.43 1015.17 1015.06 1015.14 1015.40 1015.83 1016.42 1017.12 1017.90 1018.71 1019.51 1020.25 1020.90 1021.44 1021.86 1022.14 1022.30 1022.37 1022.37 1022.33 1022.26 1022.20 1022.15 1022.12 1022.10 1022.11 1022.13 1022.15 1022.19 1022.25 1022.33 1022.45 1022.59 1022.77 1022.97
1016.66 1017.18 1017.48 1017.58 1017.47 1017.22 1016.87 1016.49 1016.17 1015.94 1015.86 1015.94 1016.20 1016.62 1017.19 1017.88 1018.63 1019.42 1020.18 1020.90 1021.54 1022.06 1022.47 1022.75 1022.91 1022.99 1022.99 1022.96 1022.90 1022.85 1022.80 1022.77 1022.76 1022.75 1022.74 1022.74 1022.74 1022.74 1022.77 1022.82 1022.89 1022.99 1023.12
1017.11 1017.65 1018.00 1018.14 1018.11 1017.94 1017.68 1017.39 1017.14 1016.97 1016.93 1017.03 1017.29 1017.69 1018.22 1018.84 1019.53 1020.24 1020.94 1021.59 1022.16 1022.64 1023.01 1023.27 1023.42 1023.50 1023.51 1023.49 1023.46 1023.42 1023.40 1023.39 1023.38 1023.38 1023.38 1023.36 1023.34 1023.31 1023.29 1023.28 1023.29 1023.32 1023.37
1017.63 1018.18 1018.56 1018.76 1018.81 1018.74 1018.59 1018.41 1018.26 1018.18 1018.20 1018.33 1018.58 1018.94 1019.40 1019.94 1020.53 1021.13 1021.73 1022.28 1022.77 1023.17 1023.49 1023.71 1023.85 1023.92 1023.94 1023.94 1023.92 1023.91 1023.91 1023.93 1023.95 1023.97 1023.97 1023.97 1023.94 1023.91 1023.86 1023.81 1023.77 1023.74 1023.72
1018.13 1018.68 1019.08 1019.35 1019.48 1019.52 1019.50 1019.46 1019.43 1019.45 1019.54 1019.70 1019.94 1020.26 1020.64 1021.07 1021.54 1022.02 1022.49 1022.93 1023.33 1023.66 1023.92 1024.11 1024.23 1024.30 1024.33 1024.34 1024.34 1024.35 1024.37 1024.40 1024.44 1024.48 1024.51 1024.52 1024.51 1024.48 1024.42 1024.36 1024.28 1024.20 1024.13
1018.54 1019.09 1019.52 1019.84 1020.06 1020.22 1020.32 1020.41 1020.51 1020.63 1020.79 1020.98 1021.22 1021.49 1021.79 1022.12 1022.47 1022.83 1023.18 1023.52 1023.83 1024.10 1024.32 1024.49 1024.61 1024.68 1024.71 1024.73 1024.74 1024.76 1024.78 1024.83 1024.88 1024.94 1024.98 1025.02 1025.02 1025.01 1024.96 1024.89 1024.80 1024.69 1024.58
1018.84 1019.39 1019.84 1020.21 1020.51 1020.76 1020.98 1021.19 1021.40 1021.62 1021.84 1022.06 1022.29 1022.51 1022.75 1022.98 1023.23 1023.48 1023.74 1024.00 1024.26 1024.49 1024.69 1024.86 1024.98 1025.06 1025.11 1025.14 1025.15 1025.17 1025.19 1025.22 1025.27 1025.33 1025.39 1025.44 1025.47 1025.47 1025.44 1025.38 1025.29 1025.17 1025.02
1019.06 1019.60 1020.06 1020.46 1020.81 1021.13 1021.44 1021.75 1022.05 1022.33 1022.60 1022.85 1023.06 1023.26 1023.43 1023.60 1023.76 1023.94 1024.14 1024.35 1024.58 1024.80 1025.02 1025.20 1025.35 1025.46 1025.52 1025.56 1025.57 1025.57 1025.58 1025.60 1025.63 1025.68 1025.74 1025.79 1025.83 1025.86 1025.85 1025.80 1025.72 1025.59 1025.43
1019.26 1019.78 1020.24 1020.64 1021.01 1021.37 1021.73 1022.08 1022.43 1022.77 1023.06 1023.32 1023.53 1023.69 1023.83 1023.94 1024.06 1024.20 1024.37 1024.57 1024.79 1025.04 1025.28 1025.50 1025.69 1025.83 1025.92 1025.96 1025.97 1025.96 1025.95 1025.94 1025.95 1025.98 1026.02 1026.07 1026.13 1026.16 1026.17 1026.14 1026.06 1025.93 1025.76
1019.50 1020.00 1020.42 1020.80 1021.16 1021.51 1021.88 1022.25 1022.61 1022.95 1023.26 1023.51 1023.71 1023.86 1023.97 1024.06 1024.16 1024.28 1024.45 1024.65 1024.90 1025.18 1025.47 1025.74 1025.97 1026.14 1026.26 1026.32 1026.33 1026.30 1026.27 1026.23 1026.21 1026.21 1026.24 1026.29 1026.34 1026.38 1026.39 1026.36 1026.29 1026.16 1025.97
1019.85 1020.31 1020.68 1021.01 1021.32 1021.63 1021.96 1022.30 1022.64 1022.97 1023.26 1023.51 1023.70 1023.84 1023.94 1024.03 1024.13 1024.26 1024.43 1024.66 1024.94 1025.26 1025.58 1025.90 1026.17 1026.38 1026.53 1026.60 1026.61 1026.58 1026.52 1026.46 1026.42 1026.40 1026.40 1026.43 1026.47 1026.50 1026.51 1026.48 1026.40 1026.26 1026.06
1020.32 1020.72 1021.03 1021.29 1021.53 1021.77 1022.03 1022.32 1022.61 1022.91 1023.18 1023.41 1023.59 1023.74 1023.85 1023.95 1024.06 1024.20 1024.40 1024.66 1024.96 1025.31 1025.67 1026.01 1026.31 1026.55 1026.72 1026.80 1026.82 1026.79 1026.72 1026.64 1026.58 1026.53 1026.51 1026.52 1026.54 1026.55 1026.55 1026.50 1026.41 1026.25 1026.04
1020.87 1021.21 1021.45 1021.63 1021.78 1021.95 1022.13 1022.35 1022.60 1022.85 1023.10 1023.32 1023.51 1023.66 1023.79 1023.91 1024.05 1024.22 1024.43 1024.70 1025.02 1025.38 1025.75 1026.11 1026.43 1026.68 1026.86 1026.96 1026.98 1026.95 1026.88 1026.79 1026.71 1026.65 1026.61 1026.58 1026.57 1026.56 1026.52 1026.45 1026.33 1026.15 1025.92
1021.43 1021.71 1021.89 1022.00 1022.08 1022.16 1022.28 1022.44 1022.64 1022.86 1023.09 1023.31 1023.51 1023.69 1023.85 1024.00 1024.16 1024.35 1024.58 1024.86 1025.18 1025.53 1025.90 1026.25 1026.57 1026.82 1027.01 1027.11 1027.14 1027.11 1027.04 1026.95 1026.85 1026.77 1026.70 1026.64 1026.59 1026.54 1026.47 1026.36 1026.21 1026.00 1025.74
1021.92 1022.16 1022.28 1022.34 1022.36 1022.39 1022.46 1022.58 1022.75 1022.95 1023.18 1023.42 1023.64 1023.85 1024.04 1024.23 1024.42 1024.62 1024.86 1025.13 1025.44 1025.78 1026.13 1026.46 1026.76 1027.01 1027.19 1027.29 1027.32 1027.30 1027.22 1027.12 1027.01 1026.90 1026.80 1026.70 1026.62 1026.52 1026.40 1026.25 1026.06 1025.83 1025.55
1022.28 1022.49 1022.58 1022.61 1022.61 1022.62 1022.66 1022.76 1022.92 1023.13 1023.37 1023.63 1023.89 1024.13 1024.36 1024.58 1024.79 1025.02 1025.26 1025.52 1025.81 1026.13 1026.44 1026.75 1027.02 1027.25 1027.42 1027.51 1027.54 1027.50 1027.42 1027.31 1027.18 1027.04 1026.90 1026.77 1026.63 1026.49 1026.33 1026.14 1025.92 1025.66 1025.36
1022.49 1022.68 1022.77 1022.79 1022.79 1022.81 1022.86 1022.97 1023.14 1023.37 1023.63 1023.92 1024.21 1024.49 1024.76 1025.00 1025.23 1025.47 1025.71 1025.96 1026.23 1026.52 1026.80 1027.08 1027.33 1027.53 1027.67 1027.75 1027.76 1027.72 1027.62 1027.48 1027.32 1027.15 1026.97 1026.80 1026.62 1026.44 1026.24 1026.02 1025.78 1025.51 1025.21
1022.56 1022.75 1022.85 1022.90 1022.92 1022.96 1023.04 1023.18 1023.38 1023.63 1023.92 1024.23 1024.55 1024.85 1025.14 1025.40 1025.65 1025.89 1026.13 1026.37 1026.62 1026.89 1027.15 1027.39 1027.61 1027.78 1027.90 1027.95 1027.94 1027.87 1027.75 1027.59 1027.40 1027.19 1026.98 1026.77 1026.56 1026.35 1026.13 1025.91 1025.66 1025.39 1025.10
1022.54 1022.74 1022.86 1022.94 1023.01 1023.09 1023.21 1023.38 1023.61 1023.88 1024.18 1024.51 1024.83 1025.14 1025.43 1025.70 1025.95 1026.19 1026.43 1026.66 1026.90 1027.15 1027.39 1027.61 1027.80 1027.94 1028.03 1028.06 1028.02 1027.92 1027.76 1027.57 1027.34 1027.11 1026.88 1026.65 1026.43 1026.22 1026.00 1025.79 1025.56 1025.32 1025.05
Thickness
5702 5705 5708 5711 5712 5712 5712 5713 5712 5712 5711 5711 5709 5707 5704 5702 5700 5698 5697 5697 5697 5698 5697 5697 5695 5695 5696 5696 5696 5694 5692 5690 5689 5686 5683 5681 5682 5681 5680 5679 5678 5675 5673
5693 5695 5697 5699 5701 5702 5702 5703 5703 5703 5704 5704 5702 5699 5696 5694 5691 5689 5688 5688 5688 5688 5689 5687 5687 5687 5687 5687 5687 5687 5686 5684 5683 5682 5678 5675 5673 5673 5673 5671 5669 5667 5665
5683 5685 5686 5687 5689 5689 5691 5693 5693 5693 5694 5695 5694 5690 5687 5684 5681 5679 5678 5678 5678 5678 5678 5678 5678 5679 5679 5678 5677 5678 5677 5676 5676 5676 5674 5671 5670 5668 5664 5661 5659 5657 5656
5675 5675 5676 5676 5677 5677 5680 5681 5681 5682 5683 5684 5684 5681 5678 5674 5671 5669 5667 5667 5667 5667 5667 5667 5668 5668 5669 5668 5668 5668 5669 5668 5667 5667 5665 5665 5666 5661 5655 5651 5649 5647 5645
5665 5664 5664 5665 5666 5667 5668 5669 5669 5671 5671 5672 5673 5671 5667 5664 5662 5659 5657 5656 5655 5654 5655 5656 5657 5658 5657 5656 5657 5657 5658 5658 5658 5657 5655 5655 5654 5654 5650 5644 5639 5637 5635
5655 5654 5654 5655 5656 5657 5657 5657 5658 5658 5659 5660 5660 5659 5656 5654 5652 5649 5647 5645 5644 5643 5644 5644 5645 5645 5644 5644 5645 5645 5645 5646 5645 5645 5644 5644 5643 5642 5640 5636 5631 5628 5624
5647 5645 5645 5645 5645 5645 5644 5645 5645 5645 5646 5646 5646 5645 5644 5643 5641 5638 5636 5634 5633 5631 5631 5632 5632 5631 5631 5632 5632 5632 5632 5632 5632 5631 5631 5631 5630 5630 5629 5627 5622 5618 5613
5637 5635 5634 5634 5634 5633 5633 5633 5633 5633 5633 5634 5633 5632 5632 5631 5629 5626 5624 5622 5621 5618 5618 5619 5619 5618 5618 5619 5619 5619 5618 5618 5618 5617 5617 5617 5617 5617 5616 5615 5613 5609 5606
5627 5625 5624 5624 5623 5622 5621 5621 5620 5620 5620 5621 5620 5620 5618 5617 5615 5613 5611 5609 5608 5607 5606 5606 5606 5606 5606 5606 5606 5605 5604 5604 5605 5604 5604 5604 5603 5604 5603 5603 5602 5601 5598
5617 5614 5613 5612 5611 5610 5609 5607 5606 5606 5606 5608 5608 5607 5606 5603 5602 5601 5598 5596 5595 5595 5595 5595 5594 5593 5593 5592 5592 5592 5590 5590 5589 5589 5588 5589 5590 5589 5589 5588 5587 5587 5586
5606 5603 5601 5601 5600 5599 5598 5596 5594 5593 5593 5593 5593 5593 5591 5590 5589 5588 5585 5584 5583 5583 5583 5582 5581 5581 5580 5579 5579 5578 5577 5577 5576 5575 5574 5573 5573 5575 5576 5575 5574 5573 5572
5597 5593 5591 5590 5589 5587 5585 5583 5582 5581 5579 5579 5579 5578 5577 5576 5576 5574 5572 5571 5571 5571 5570 5570 5569 5568 5567 5566 5566 5565 5564 5563 5563 5561 5561 5560 5560 5559 5560 5560 5559 5557 5554
5588 5584 5582 5580 5577 5574 5572 5570 5568 5567 5566 5566 5566 5564 5563 5562 5561 5561 5560 5559 5559 5558 5558 5558 5557 5556 5555 5554 5553 5553 5552 5550 5549 5548 5547 5547 5546 5546 5545 5545 5546 5544 5542
5581 5576 5573 5570 5566 5563 5561 5559 5556 5555 5553 5553 5552 5551 5549 5549 5549 5548 5548 5547 5547 5547 5547 5546 5545 5545 5544 5542 5542 5541 5539 5538 5536 5535 5535 5534 5533 5532 5532 5532 5530 5530 5530
5573 5568 5564 5560 5556 5553 5550 5548 5545 5543 5542 5542 5541 5539 5537 5537 5537 5537 5536 5535 5536 5536 5536 5535 5534 5533 5532 5530 5529 5529 5528 5527 5525 5524 5523 5521 5517 5515 5516 5518 5517 5518 5519
5565 5559 5555 5551 5547 5544 5541 5538 5536 5534 5532 5531 5530 5528 5528 5527 5527 5527 5526 5525 5526 5525 5525 5525 5524 5523 5520 5514 5513 5515 5517 5517 5516 5515 5514 5512 5509 5505 5504 5503 5501 5501 5504
5556 5552 5548 5543 5539 5536 5533 5530 5528 5526 5525 5523 5522 5521 5521 5520 5519 5519 5518 5517 5516 5516 5515 5515 5514 5511 5505 5502 5503 5504 5508 5508 5506 5505 5505 5505 5501 5499 5499 5496 5493 5492 5490
5549 5544 5540 5535 5531 5527 5524 5522 5521 5519 5518 5516 5515 5514 5514 5513 5512 5511 5510 5509 5508 5508 5507 5506 5504 5502 5496 5494 5494 5495 5499 5499 5497 5497 5496 5495 5493 5491 5488 5491 5492 5491 5488
5543 5537 5533 5528 5523 5520 5518 5516 5515 5513 5512 5510 5509 5509 5508 5506 5505 5504 5502 5501 5500 5500 5499 5498 5496 5495 5490 5486 5487 5486 5493 5493 5491 5490 5487 5486 5486 5478 5478 5482 5485 5485 5484
5536 5530 5525 5520 5517 5514 5512 5511 5509 5507 5506 5504 5503 5502 5501 5500 5499 5497 5496 5495 5494 5494 5494 5491 5490 5488 5484 5479 5480 5479 5489 5488 5488 5485 5482 5475 5474 5471 5471 5476 5479 5479 5478
5528 5523 5519 5515 5511 5508 5507 5505 5503 5501 5500 5499 5498 5497 5495 5494 5493 5492 5491 5490 5490 5488 5488 5486 5484 5481 5477 5474 5473 5473 5479 5482 5482 5482 5480 5473 5467 5466 5466 5467 5470 5469 5469
5522 5518 5514 5510 5506 5504 5502 5500 5497 5496 5495 5494 5493 5491 5490 5491 5489 5487 5486 5486 5485 5484 5483 5481 5480 5478 5474 5470 5467 5467 5467 5468 5474 5475 5473 5468 5463 5462 5462 5463 5463 5464 5465
5517 5513 5510 5505 5502 5499 5497 5495 5493 5492 5491 5490 5488 5487 5486 5485 5484 5484 5483 5483 5481 5482 5481 5480 5478 5476 5473 5467 5464 5463 5463 5463 5467 5467 5462 5460 5460 5460 5461 5459 5461 5463 5468
5512 5508 5505 5501 5497 5495 5494 5492 5491 5489 5488 5486 5485 5484 5483 5482 5480 5481 5481 5481 5479 5478 5477 5476 5475 5472 5470 5467 5464 5465 5465 5461 5463 5464 5461 5458 5458 5459 5458 5460 5462 5464 5464
5508 5505 5502 5499 5495 5492 5491 5489 5488 5487 5485 5484 5483 5482 5481 5480 5478 5476 5473 5473 5469 5467 5468 5469 5469 5468 5465 5455 5451 5453 5459 5458 5458 5458 5463 5462 5461 5460 5460 5461 5461 5462 5463
5506 5502 5500 5497 5494 5491 5489 5487 5486 5485 5484 5483 5482 5482 5481 5478 5478 5475 5471 5462 5461 5458 5456 5455 5455 5456 5452 5449 5448 5448 5449 5450 5451 5455 5460 5459 5458 5458 5458 5458 5459 5460 5460